Date,TemperatureHighF,TemperatureAvgF,TemperatureLowF,DewpointHighF,DewpointAvgF,DewpointLowF,HumidityHigh,HumidityAvg,HumidityLow,PressureMaxIn,PressureMinIn,WindSpeedMaxMPH,WindSpeedAvgMPH,GustSpeedMaxMPH,PrecipitationSumIn
2013-10-1,81.9,61.1,44.7,52.0,47.5,43.0,97,66,30,29.99,29.88,4,1,10,0.00
2013-10-2,58.7,56.5,49.6,48.0,47.7,46.0,86,73,68,29.92,29.91,2,1,4,0.00
2013-10-8,80.1,67.3,59.2,46.0,43.1,41.0,56,43,25,29.72,29.68,3,1,10,0.00
2013-10-9,77.4,61.9,50.2,45.0,41.9,37.0,72,51,24,29.73,29.59,10,2,17,0.00
2013-10-10,76.9,56.8,44.5,50.0,44.0,40.0,90,66,35,29.98,29.73,6,1,8,0.00
2013-10-11,73.7,53.6,44.6,52.0,46.5,42.0,97,80,40,30.08,29.94,5,0,7,0.00
2013-10-12,76.2,56.2,42.5,52.0,46.0,41.0,97,73,41,30.00,29.84,5,0,12,0.00
2013-10-13,79.0,57.5,40.5,48.0,43.0,37.0,96,65,23,30.04,29.89,5,0,7,0.00
2013-10-14,83.0,56.5,39.1,45.0,40.4,37.0,94,63,23,30.10,29.96,6,1,10,0.00
2013-10-15,87.5,57.5,38.2,42.0,36.2,28.0,91,55,12,30.03,29.90,5,1,8,0.00
2013-10-16,84.9,56.7,37.9,39.0,35.9,31.0,88,54,15,30.07,29.97,5,0,7,0.00
2013-10-17,86.8,58.0,39.3,42.0,37.8,35.0,85,54,17,30.07,29.91,5,0,6,0.00
2013-10-18,83.7,56.2,37.8,46.0,41.1,36.0,95,64,23,30.03,29.94,3,0,6,0.00
2013-10-19,88.8,57.0,37.5,47.0,41.1,34.0,96,65,14,30.06,29.94,4,0,8,0.00
2013-10-20,83.2,55.0,37.9,49.0,43.4,36.0,96,71,26,30.00,29.86,3,0,6,0.00
2013-10-21,77.7,54.5,45.7,54.0,47.4,44.0,98,80,38,29.99,29.87,4,0,5,0.00
2013-10-22,82.6,55.5,44.2,53.0,47.2,42.0,98,78,35,30.01,29.88,3,0,4,0.00
2013-10-23,78.3,53.7,43.8,55.0,47.1,41.0,98,82,43,29.96,29.85,3,0,7,0.00
2013-10-24,68.6,53.0,43.5,52.0,47.7,41.0,96,84,52,30.08,29.95,4,0,7,0.00
2013-10-25,73.8,52.0,38.2,52.0,45.2,37.0,98,80,46,30.16,30.05,4,0,7,0.01
2013-10-26,85.9,55.9,38.0,51.0,43.2,37.0,97,70,25,30.13,29.97,3,0,6,0.00
2013-10-27,67.2,51.5,41.8,52.0,45.5,40.0,98,82,54,30.01,29.61,6,1,17,0.01
2013-10-28,68.4,53.1,41.1,45.0,42.6,38.0,92,71,39,29.80,29.63,11,0,12,0.00
2013-10-29,67.4,51.1,39.4,49.0,43.9,37.0,97,79,49,30.03,29.80,4,0,7,0.00
2013-10-30,69.6,49.4,36.1,49.0,41.2,35.0,97,77,43,30.13,30.03,5,0,7,0.00
2013-10-31,78.4,52.4,36.1,49.0,42.0,35.0,96,72,35,30.16,30.02,5,0,7,0.00